User: anonymous   Login
Location: Bermeries
(50.2863°N, 3.7551°E)
Time: 11:48:14
(UTC+00:00)
Language:

Cosmos 1300 Rocket - Orbit

View from above orbital plane
View from above orbital plane
View from above satellite
View from above satellite

Ground track
Ground track

The orbit data is extracted from the following two-line orbital elements,

1 12786U 81082B   24200.93024149  .00001105  00000-0  12355-3 0  9999
2 12786  82.4868  46.7819 0016885 351.1225   8.9689 14.85997423297903
Epoch (UTC): 18 July 2024 22:19:32
Eccentricity: 0.0016885
inclination: 82.4868°
perigee height: 598 km
apogee height: 622 km
right ascension of ascending node: 46.7819°
argument of perigee: 351.1225°
revolutions per day: 14.85997423
mean anomaly at epoch: 8.9689°
orbit number at epoch: 29790

The dashed part of the orbit path shows where the satellite is in the earth's shadow,  

DLR